Weather History for KNZY - October, 2013

Change the Weather History Date:

Sunday, October 6, 2013

  Actual Average Record
Temperature  
Mean Temperature 78 °F -  
Max Temperature 95 °F 70 °F 95 °F (2013)
Min Temperature 62 °F 59 °F 33 °F (1996)
Cooling Degree Days 12    
Growing Degree Days 28 (Base 50)    
Moisture  
Dew Point 42 °F    
Average Humidity 34    
Maximum Humidity 63    
Minimum Humidity 7    
Precipitation  
Precipitation 0.00 in - - ()
Sea Level Pressure  
Sea Level Pressure 30.00 in    
Wind  
Wind Speed 4 mph (NW)    
Max Wind Speed 17 mph    
Max Gust Speed -    
Visibility 10 miles    
Events      
Averages and records for this station are not official NWS values.
T = Trace of Precipitation, MM = Missing Value Source: NWS Daily Summary

Daily Weather History Graph

Daily Weather History Graph

Search for Another Location

Airport or City:

Trip Planner

Search our weather history database for the weather conditions in past years. The results will help you decide how hot, cold, wet, or windy it might be!

Date:

Astronomy

Oct. 06, 2013 Rise Set
Actual Time 6:46 AM PDT 6:26 PM PDT
Civil Twilight 6:21 AM PDT 6:51 PM PDT
Nautical Twilight 5:53 AM PDT 7:19 PM PDT
Astronomical Twilight 5:24 AM PDT 7:48 PM PDT
Moon 8:28 AM PDT (10/6) 7:37 PM PDT (10/6)
Length of Visible Light 12h 29m
Length of Day
11h 39m
Waxing Crescent, 4% of the Moon is Illuminated
Oct 6
Waxing Crescent
Oct 11
First Quarter
Oct 18
Full
Oct 26
Last Quarter
Nov 3
New

Hourly Weather History & Observations

Time (PDT) Temp. Dew Point Humidity Pressure Visibility Wind Dir Wind Speed Gust Speed Precip Events Conditions
12:52 AM 66.0 °F 42.1 °F 42% 30.05 in 10.0 mi Calm Calm - N/A   Clear
1:52 AM 66.9 °F 46.0 °F 47% 30.05 in 10.0 mi South 3.5 mph - N/A   Clear
2:52 AM 64.9 °F 48.9 °F 56% 30.05 in 10.0 mi Calm Calm - N/A   Clear
3:52 AM 64.0 °F 46.9 °F 54% 30.04 in 10.0 mi WNW 3.5 mph - N/A   Clear
4:52 AM 64.0 °F 44.1 °F 48% 30.03 in 10.0 mi Calm Calm - N/A   Clear
5:52 AM 62.1 °F 45.0 °F 53% 30.04 in 10.0 mi Calm Calm - N/A   Clear
6:52 AM 62.1 °F 37.0 °F 39% 30.04 in 10.0 mi Calm Calm - N/A   Partly Cloudy
7:52 AM 68.0 °F 41.0 °F 37% 30.04 in 10.0 mi Calm Calm - N/A   Partly Cloudy
8:52 AM 77.0 °F 36.0 °F 23% 30.06 in 10.0 mi Calm Calm - N/A   Partly Cloudy
9:52 AM 84.0 °F 28.9 °F 14% 30.05 in 10.0 mi Calm Calm - N/A   Partly Cloudy
10:52 AM 90.0 °F 25.0 °F 10% 30.04 in 10.0 mi WNW 3.5 mph - N/A   Partly Cloudy
11:52 AM 93.0 °F 21.0 °F 7% 30.02 in 10.0 mi SSW 3.5 mph - N/A   Partly Cloudy
12:52 PM 93.0 °F 21.9 °F 8% 30.00 in 10.0 mi NW 9.2 mph - N/A   Scattered Clouds
1:52 PM 91.0 °F 34.0 °F 13% 29.97 in 10.0 mi NW 12.7 mph - N/A   Scattered Clouds
2:52 PM 88.0 °F 42.1 °F 20% 29.96 in 10.0 mi NW 17.3 mph - N/A   Scattered Clouds
3:52 PM 86.0 °F 48.9 °F 28% 29.94 in 10.0 mi NNW 16.1 mph - N/A   Mostly Cloudy
4:52 PM 86.0 °F 44.1 °F 23% 29.94 in 10.0 mi NW 15.0 mph - N/A   Mostly Cloudy
5:52 PM 82.0 °F 46.9 °F 29% 29.94 in 10.0 mi NNW 13.8 mph - N/A   Mostly Cloudy
6:52 PM 80.1 °F 45.0 °F 29% 29.94 in 10.0 mi NNW 11.5 mph - N/A   Mostly Cloudy
7:52 PM 78.1 °F 45.0 °F 31% 29.95 in 10.0 mi NNW 8.1 mph - N/A   Mostly Cloudy
8:52 PM 73.9 °F 52.0 °F 46% 29.96 in 10.0 mi NW 4.6 mph - N/A   Scattered Clouds
9:52 PM 75.0 °F 52.0 °F 44% 29.97 in 10.0 mi NW 4.6 mph - N/A   Mostly Cloudy
10:52 PM 72.0 °F 53.1 °F 51% 29.97 in 10.0 mi Calm Calm - N/A   Mostly Cloudy
11:52 PM 69.1 °F 55.9 °F 63% 29.96 in 10.0 mi Calm Calm - N/A   Mostly Cloudy